Regional Weather Roundup
Issued by NWS

Home | Current Version | Previous Version | Text Only | Print | Product List | Glossary On
Versions: 1 2 3 4 5 6 7 8 9 10 11 12 13 14 15 16 17 18 19 20 21 22 23 24 25 26 27 28 29 30 31 32 33 34 35 36 37 38 39 40 41 42 43 44 45 46 47 48 49 50
000
ASUS43 KLOT 300910
RWRIL

ILLINOIS REGIONAL WEATHER ROUNDUP
NATIONAL WEATHER SERVICE CHICAGO/ROMEOVILLE IL
300 AM CST FRI JAN 30 2015

NOTE: "FAIR" INDICATES FEW OR NO CLOUDS BELOW 12,000 FEET WITH NO
SIGNIFICANT WEATHER AND/OR OBSTRUCTIONS TO VISIBILITY.

* THESE STATIONS ARE NOT UNDER NWS QUALITY CONTROL. THEY ALSO MAY NOT
  REPORT WEATHER SUCH AS PRECIPITATION OR FOG.

ILZ001-002-007-009-015-016-024-301000-
NORTHWEST ILLINOIS

CITY           SKY/WX    TMP DP  RH WIND       PRES   REMARKS
MOLINE         CLEAR     23  15  71 NW7       30.48R WCI  15
STERLING*      CLEAR     25  14  63 N10       30.44R WCI  15
SAVANNA*       CLEAR     24  13  61 N10       30.46S WCI  14
$$

ILZ003-004-008-010-011-017-018-301000-
NORTH CENTRAL ILLINOIS

CITY           SKY/WX    TMP DP  RH WIND       PRES   REMARKS
ROCKFORD       PTCLDY    24  16  71 NE8       30.44R WCI  15
FREEPORT*      PTCLDY    21  13  69 NW9       30.45R WCI  11
ROCHELLE*      CLOUDY    24  19  81 N6        30.43R WCI  17
DE KALB*       CLEAR     21  14  72 N10       30.41R WCI  10
PERU*          CLEAR     25  18  74 NW13      30.44R WCI  14
$$

ILZ005-006-012>014-019>023-301000-
NORTHEAST ILLINOIS

CITY           SKY/WX    TMP DP  RH WIND       PRES   REMARKS
CHICAGO-OHARE  MOCLDY    25   8  48 N15       30.39R WCI  13
CHICAGO-MIDWAY MOCLDY    28  10  46 N13       30.39R WCI  17
AURORA         PTCLDY    22  15  75 N9        30.41R WCI  12
LANSING*       CLOUDY    28  13  54 N13G20    30.38R WCI  17
JOLIET*        PTCLDY    26  17  67 N7        30.41R WCI  18
WAUKEGAN       PTCLDY    23   9  55 NW9G17    30.39R WCI  13
DUPAGE AIRPORT CLOUDY    24  12  60 N10       30.39R WCI  14
KANKAKEE*      PTCLDY    28  21  74 N10       30.39R WCI  19
WHEELING       CLOUDY    24   9  52 N9        30.41R WCI  14
MORRIS*        CLEAR     25  19  80 N5        30.41R WCI  19
ROMEOVILLE*    MOCLDY    26  14  59 N13       30.40R WCI  15
NORTHERLY ISL    N/A     27  11  51 NW12        N/A  WCI  17
$$

LMZ740>746-301000-
SOUTHERN LAKE MICHIGAN

STATION/POSITION SKY/WX   TEMP    WIND        PRES    VSBY  WAVE
                          AIR SEA DIR/SP/G                  HT/PER
                          (F)     (DEG/KT/KT) (MB)    (MI)  (FT/S)
WAUKEGAN HARBOR            24     330/ 11/ 19   N/A
HARRISON CRIB              27     340/ 27/ 32   N/A
BURNHAM HARBOR             27     320/ 11/ 19   N/A
CALUMET HARBOR             27     330/ 19/ 24   N/A
MICHIGAN CITY              28     330/ 30/ 34   N/A
$$

ILZ025>027-034>036-040-047-049-050-058-095>099-301000-
WEST-CENTRAL ILLINOIS

CITY           SKY/WX    TMP DP  RH WIND       PRES   REMARKS
QUINCY         CLOUDY    26  18  71 N17       30.48F WCI  13
GALESBURG*     CLEAR     24  19  80 NW10      30.47S WCI  13
MACOMB*        CLEAR     25  19  77 NW14      30.51S WCI  14
JACKSONVILLE*  CLOUDY    31  22  67 NW10      30.48R WCI  22
PITTSFIELD*    CLOUDY    29  21  71 N14       30.49F WCI  18
$$

ILZ028>032-037-038-041>044-048-051>054-059>061-301000-
CENTRAL ILLINOIS

CITY           SKY/WX    TMP DP  RH WIND       PRES   REMARKS
PONTIAC        CLEAR     29  22  76 NW15      30.42R WCI  17
BLOOMINGTON    CLEAR     27  21  77 NW12      30.42R WCI  17
DECATUR        CLOUDY    31  21  66 NW13G24   30.42R WCI  21
PEORIA         CLEAR     28  17  63 NW7       30.45R WCI  21
LACON*         CLEAR     26  18  73 NW7       30.44R WCI  18
LINCOLN*       CLOUDY    31  21  67 NW10G18   30.46R WCI  22
SPRINGFIELD    CLOUDY    30  19  63 NW12      30.46R WCI  20
TAYLORVILLE    CLOUDY    30  23  74 N18G24    30.45S WCI  18
$$

ILZ033-039-045-046-055>057-062-063-301000-
EAST-CENTRAL ILLINOIS

CITY           SKY/WX    TMP DP  RH WIND       PRES   REMARKS
CHAMPAIGN      CLOUDY    31  23  72 NW20      30.38R WCI  19
DANVILLE*      CLOUDY    31  26  79 NW13G18   30.33R WCI  22
RANTOUL*       CLOUDY    32  23  69 NW16G26   30.38R WCI  21
MATTOON        CLOUDY    31  22  69 NW18      30.39R WCI  19
PARIS*         CLOUDY    32  28  84 NW18      30.37R WCI  20
$$

ILZ079-100>102-301000-
SOUTHWEST ILLINOIS

CITY           SKY/WX    TMP DP  RH WIND       PRES   REMARKS
ALTON          CLOUDY    32  21  65 NW12G18   30.47S WCI  23
BELLEVILLE     CLOUDY    33  22  66 N12       30.46R WCI  24
CAHOKIA*       CLOUDY    33  24  69 NW13      30.47S WCI  24
SPARTA*        CLOUDY    33  24  69 NW14G22   30.46S WCI  24
$$

ILZ064>066-069>071-074>076-080>082-084>086-088>090-092>094-301000-
SOUTH-CENTRAL ILLINOIS

CITY           SKY/WX    TMP DP  RH WIND       PRES   REMARKS
CARBONDALE     CLOUDY    35  23  61 N8        30.46R WCI  29
CAIRO*         CLOUDY    39  27  63 N17       30.46R WCI  30
EFFINGHAM*     CLOUDY    33  23  67 W15       30.43S WCI  23
MARION         CLOUDY    36  25  64 NW10G18   30.46R WCI  28
CENTRALIA*     CLOUDY    33  23  66 N15G23    30.44R WCI  23
SALEM*         CLOUDY    35  25  67 N12       30.44R WCI  26
METROPOLIS*    CLOUDY    37  27  69 N14G20    30.44R WCI  28
$$

ILZ067-068-072-073-078-083-087-091-301000-
SOUTHEAST ILLINOIS

CITY           SKY/WX    TMP DP  RH WIND       PRES   REMARKS
LAWRENCEVILLE  CLOUDY    34  24  67 NW15      30.39R WCI  24
FLORA*         CLOUDY    33  26  75 NW12      30.43R WCI  25
FAIRFIELD*     CLOUDY    34  26  71 NW6       30.43R WCI  29
HARRISBURG*    CLOUDY    35  25  67 NW10      30.45R WCI  27
ROBINSON*      CLOUDY    34  26  71 NW13      30.40R WCI  25
CARMI*         CLOUDY    36  30  77 NW10      30.42R WCI  29
$$

ABBREVIATIONS USED IN REMARKS
   TC - TEMPERATURE IN CELSIUS
  WCI - WIND CHILL INDEX
   HX - HEAT INDEX
  VSB - VISIBILITY
$$




USA.gov is the U.S. government's official web portal to all federal, state and local government web resources and services.